Thunderstorms From: 15-12-2017 06:00 Until: 16-12-2017 06:00 warning for: Thunderstorms Level: Yellow info button

Although rather usual in this region, locally or potentially dangerous phenomena are expected. (such as local winds, summer thunderstorms, rising streams or high waves) Be aware and pay attention to the latest weather updates, especially if you carry out activities exposed to weather or close to a stream or shoreline. 


Meteo18 Weather Cam more information Meteo18 Weather Cam


warning for Thunderstorms more information blitzortung!


Rain radar more information rain snow radar


Visit our other weather sites:

Template documentation
and downloads

And another site



Weather Underground History page Text

Daily Summary for June 16, 2017 Units:  English    Metric   Both
« Previous Day
Next Day »
Daily Weekly Monthly Yearly Custom
  High: Low: Average:
Temperature: 74.7 °F 59 °F 67.6 °F
Dew Point: 56.3 °F 48.4 °F 52.9 °F
Humidity: 87 % 41 % 61 %
Wind Speed: 11 mph 0 mph 3 mph
Wind Gust: 17 mph - -
Wind:- - WSW
Pressure: 30.3 in 30.2 in -
Precipitation: 0 in    
Historical Graphs
 
 
Tabular Data for June 16, 2017
Time Temperature Dew Point Pressure Wind Wind Speed Wind Gust Humidity Rainfall Rate (Hourly)
00:02 69.4 °F 52.5 °F 30.2 in NW 1 mph 7 mph 55 % 0 in
00:12 69.1 °F 52.2 °F 30.2 in NNW 2 mph 7 mph 55 % 0 in
00:17 68.9 °F 52 °F 30.2 in NW 2 mph 7 mph 55 % 0 in
00:22 68.7 °F 52.3 °F 30.2 in NNW 1 mph 5 mph 56 % 0 in
00:27 68.5 °F 52.2 °F 30.2 in NNW 1 mph 5 mph 56 % 0 in
00:32 68.4 °F 53.1 °F 30.2 in NW 2 mph 5 mph 58 % 0 in
00:37 68.2 °F 52.9 °F 30.2 in NNW 1 mph 5 mph 58 % 0 in
00:42 67.8 °F 52.9 °F 30.2 in NNW 2 mph 5 mph 59 % 0 in
00:47 67.6 °F 53.2 °F 30.2 in NNW 3 mph 4 mph 60 % 0 in
00:57 67.1 °F 53.6 °F 30.2 in NNW 2 mph 4 mph 62 % 0 in
01:02 66.9 °F 53.4 °F 30.2 in NNW 1 mph 4 mph 62 % 0 in
01:12 66.6 °F 53.6 °F 30.2 in NW 1 mph 3 mph 63 % 0 in
01:17 66.4 °F 53.4 °F 30.2 in NW 4 mph 4 mph 63 % 0 in
01:22 66.4 °F 53.4 °F 30.2 in NNW 2 mph 4 mph 63 % 0 in
01:27 66.4 °F 53.4 °F 30.2 in NNW 2 mph 4 mph 63 % 0 in
01:32 66.2 °F 52.9 °F 30.2 in NNW 2 mph 4 mph 62 % 0 in
01:37 66 °F 53.1 °F 30.2 in NNW 2 mph 5 mph 63 % 0 in
01:42 66 °F 53.1 °F 30.2 in NNW 2 mph 5 mph 63 % 0 in
01:47 65.8 °F 52.9 °F 30.2 in WNW 2 mph 5 mph 63 % 0 in
01:57 65.7 °F 53.2 °F 30.2 in NW 2 mph 6 mph 64 % 0 in
02:02 65.5 °F 53.4 °F 30.2 in NNW 5 mph 6 mph 65 % 0 in
02:12 65.1 °F 54.3 °F 30.2 in WNW 2 mph 6 mph 68 % 0 in
02:17 64.9 °F 54.5 °F 30.2 in WNW 1 mph 6 mph 69 % 0 in
02:22 64.9 °F 54.5 °F 30.2 in WNW 2 mph 7 mph 69 % 0 in
02:27 64.8 °F 54.7 °F 30.2 in West 1 mph 7 mph 70 % 0 in
02:32 64.8 °F 55.2 °F 30.2 in NW 4 mph 9 mph 71 % 0 in
02:37 64.9 °F 55.8 °F 30.2 in North 4 mph 9 mph 72 % 0 in
02:42 64.9 °F 55.8 °F 30.2 in WNW 2 mph 10 mph 72 % 0 in
02:47 64.9 °F 56.1 °F 30.2 in NW 4 mph 10 mph 73 % 0 in
02:57 64.8 °F 55.9 °F 30.2 in NW 2 mph 8 mph 73 % 0 in
03:02 64.6 °F 56.1 °F 30.2 in WNW 3 mph 7 mph 74 % 0 in
03:12 63.7 °F 55.6 °F 30.2 in WNW 1 mph 5 mph 75 % 0 in
03:17 63.3 °F 55.6 °F 30.2 in WNW 1 mph 5 mph 76 % 0 in
03:22 63.1 °F 55.4 °F 30.2 in NW 2 mph 5 mph 76 % 0 in
03:32 62.8 °F 55.4 °F 30.2 in NNW 2 mph 4 mph 77 % 0 in
03:37 62.4 °F 55.4 °F 30.2 in Calm   4 mph 78 % 0 in
03:42 62.2 °F 55.2 °F 30.2 in Calm   3 mph 78 % 0 in
03:47 62.1 °F 55.4 °F 30.2 in Calm   3 mph 79 % 0 in
03:52 61.9 °F 55.6 °F 30.2 in Calm   3 mph 80 % 0 in
03:57 61.9 °F 55.6 °F 30.2 in WNW 1 mph 3 mph 80 % 0 in
04:02 62.1 °F 55.8 °F 30.2 in Calm   3 mph 80 % 0 in
04:12 62.1 °F 55.8 °F 30.2 in NW 1 mph 3 mph 80 % 0 in
04:17 62.1 °F 55.8 °F 30.2 in NW 1 mph 2 mph 80 % 0 in
04:22 61.9 °F 55.9 °F 30.2 in Calm   3 mph 81 % 0 in
04:32 61.9 °F 56.3 °F 30.2 in North 2 mph 6 mph 82 % 0 in
04:37 61.9 °F 56.3 °F 30.2 in NNE 2 mph 7 mph 82 % 0 in
04:42 61.7 °F 56.1 °F 30.2 in North 2 mph 7 mph 82 % 0 in
04:47 61.3 °F 55.8 °F 30.2 in NNW 2 mph 6 mph 82 % 0 in
04:52 61.2 °F 55.6 °F 30.2 in NNW 4 mph 6 mph 82 % 0 in
04:57 61.3 °F 55.8 °F 30.2 in NNW 2 mph 8 mph 82 % 0 in
05:02 61.3 °F 55.8 °F 30.2 in North 3 mph 8 mph 82 % 0 in
05:12 61.2 °F 55.6 °F 30.2 in NNE 2 mph 8 mph 82 % 0 in
05:17 61 °F 55.4 °F 30.2 in North 4 mph 6 mph 82 % 0 in
05:22 61 °F 55.4 °F 30.2 in North 1 mph 6 mph 82 % 0 in
05:32 60.4 °F 55.2 °F 30.2 in NNE 5 mph 7 mph 83 % 0 in
05:37 60.4 °F 55.2 °F 30.2 in NW 1 mph 7 mph 83 % 0 in
05:42 60.4 °F 55.2 °F 30.2 in NNW 2 mph 7 mph 83 % 0 in
05:52 60.4 °F 55.2 °F 30.2 in WNW 1 mph 7 mph 83 % 0 in
05:57 60.3 °F 55 °F 30.2 in NNW 4 mph 6 mph 83 % 0 in
06:02 60.1 °F 55.2 °F 30.2 in NW 1 mph 6 mph 84 % 0 in
06:12 59.5 °F 55 °F 30.2 in NW 1 mph 6 mph 85 % 0 in
06:17 59.4 °F 54.9 °F 30.2 in Calm   5 mph 85 % 0 in
06:22 59.4 °F 55.2 °F 30.2 in NW 3 mph 5 mph 86 % 0 in
06:32 59.2 °F 55.4 °F 30.3 in Calm   3 mph 87 % 0 in
06:42 59.4 °F 55.2 °F 30.3 in NNE 2 mph 3 mph 86 % 0 in
06:47 59.4 °F 55.2 °F 30.3 in NW 3 mph 4 mph 86 % 0 in
06:52 59.4 °F 55.2 °F 30.3 in NE 1 mph 4 mph 86 % 0 in
07:02 59.2 °F 54.7 °F 30.3 in North 3 mph 7 mph 85 % 0 in
07:12 59 °F 54.1 °F 30.3 in NNW 5 mph 8 mph 84 % 0 in
07:17 59 °F 54.1 °F 30.3 in NNE 2 mph 7 mph 84 % 0 in
07:22 59 °F 54.1 °F 30.3 in NNW 3 mph 7 mph 84 % 0 in
07:27 59.2 °F 54.3 °F 30.3 in NNW 4 mph 7 mph 84 % 0 in
07:32 59.4 °F 54.1 °F 30.3 in NNW 4 mph 11 mph 83 % 0 in
07:42 59.7 °F 54.1 °F 30.3 in NNE 1 mph 11 mph 82 % 0 in
07:52 60.1 °F 54.3 °F 30.3 in NNE 2 mph 7 mph 81 % 0 in
07:57 59.7 °F 54 °F 30.3 in NNW 3 mph 7 mph 81 % 0 in
08:02 59.7 °F 54 °F 30.3 in NNW 2 mph 7 mph 81 % 0 in
08:12 59.5 °F 53.8 °F 30.3 in NNE 6 mph 7 mph 81 % 0 in
08:17 59.5 °F 53.4 °F 30.3 in WNW 2 mph 11 mph 80 % 0 in
08:22 59.5 °F 53.1 °F 30.3 in NNW 5 mph 11 mph 79 % 0 in
08:32 59.7 °F 52.9 °F 30.3 in NNW 4 mph 9 mph 78 % 0 in
08:42 60.3 °F 53.1 °F 30.3 in NNW 2 mph 8 mph 77 % 0 in
08:52 60.6 °F 52.7 °F 30.3 in NNE 1 mph 7 mph 75 % 0 in
09:02 61 °F 52.7 °F 30.3 in NNE 4 mph 8 mph 74 % 0 in
09:12 61.2 °F 52 °F 30.3 in NNE 4 mph 7 mph 72 % 0 in
09:17 61.3 °F 52.2 °F 30.3 in NE 3 mph 6 mph 72 % 0 in
09:22 61.5 °F 52 °F 30.3 in ENE 3 mph 6 mph 71 % 0 in
09:32 62.4 °F 52.2 °F 30.3 in ENE 1 mph 6 mph 69 % 0 in
09:42 63.9 °F 52.7 °F 30.3 in Calm   6 mph 67 % 0 in
09:47 64.8 °F 52.3 °F 30.3 in Calm   4 mph 64 % 0 in
09:52 64.6 °F 51.6 °F 30.3 in West 2 mph 3 mph 63 % 0 in
09:57 64.6 °F 51.6 °F 30.3 in WSW 1 mph 4 mph 63 % 0 in
10:02 64.8 °F 52.3 °F 30.3 in WSW 2 mph 5 mph 64 % 0 in
10:12 66.4 °F 52.9 °F 30.3 in North 2 mph 5 mph 62 % 0 in
10:17 66.7 °F 50.5 °F 30.3 in West 2 mph 4 mph 56 % 0 in
10:22 66.4 °F 50.2 °F 30.3 in WNW 3 mph 5 mph 56 % 0 in
10:27 66.4 °F 51.1 °F 30.3 in Calm   6 mph 58 % 0 in
10:32 66.9 °F 50.7 °F 30.3 in WNW 1 mph 6 mph 56 % 0 in
10:42 66.7 °F 51.4 °F 30.3 in WSW 1 mph 6 mph 58 % 0 in
10:52 66.7 °F 52.3 °F 30.3 in WNW 4 mph 7 mph 60 % 0 in
11:02 66.7 °F 52 °F 30.3 in WNW 4 mph 9 mph 59 % 0 in
11:07 66.9 °F 51.6 °F 30.3 in NW 1 mph 7 mph 58 % 0 in
11:12 67.3 °F 52.5 °F 30.3 in NNE 2 mph 7 mph 59 % 0 in
11:17 67.5 °F 52.2 °F 30.3 in WNW 4 mph 7 mph 58 % 0 in
11:22 67.8 °F 52.9 °F 30.3 in North 1 mph 6 mph 59 % 0 in
11:32 69.3 °F 53.8 °F 30.3 in WNW 5 mph 6 mph 58 % 0 in
11:42 68.9 °F 54 °F 30.3 in NW 4 mph 7 mph 59 % 0 in
11:47 69.1 °F 53.6 °F 30.3 in SW 6 mph 8 mph 58 % 0 in
11:52 69.4 °F 54 °F 30.3 in North 6 mph 8 mph 58 % 0 in
11:57 69.6 °F 54.1 °F 30.3 in WNW 2 mph 8 mph 58 % 0 in
12:02 69.4 °F 54 °F 30.3 in West 1 mph 8 mph 58 % 0 in
12:12 69.6 °F 54.1 °F 30.3 in West 5 mph 9 mph 58 % 0 in
12:17 70.2 °F 55.2 °F 30.3 in SW 7 mph 9 mph 59 % 0 in
12:22 69.8 °F 54.3 °F 30.3 in Calm   9 mph 58 % 0 in
12:27 70.3 °F 54.9 °F 30.3 in West 6 mph 10 mph 58 % 0 in
12:32 71.1 °F 55.6 °F 30.3 in WNW 1 mph 10 mph 58 % 0 in
12:42 70.5 °F 55 °F 30.3 in WNW 1 mph 11 mph 58 % 0 in
12:47 70.9 °F 55.4 °F 30.3 in WNW 7 mph 11 mph 58 % 0 in
12:52 71.1 °F 55.9 °F 30.3 in ENE 2 mph 11 mph 59 % 0 in
13:02 71.4 °F 56.3 °F 30.3 in WNW 7 mph 13 mph 59 % 0 in
13:07 71.4 °F 55.9 °F 30.3 in NW 7 mph 13 mph 58 % 0 in
13:12 71.4 °F 56.3 °F 30.3 in NW 3 mph 13 mph 59 % 0 in
13:17 72 °F 55.9 °F 30.3 in NNW 2 mph 11 mph 57 % 0 in
13:22 72 °F 55.9 °F 30.3 in North 7 mph 12 mph 57 % 0 in
13:27 72 °F 55.9 °F 30.3 in NNW 7 mph 14 mph 57 % 0 in
13:32 71.4 °F 55.9 °F 30.3 in West 9 mph 14 mph 58 % 0 in
13:37 71.4 °F 56.3 °F 30.3 in North 7 mph 14 mph 59 % 0 in
13:42 71.8 °F 55.2 °F 30.3 in NNE 4 mph 11 mph 56 % 0 in
13:47 72 °F 55.4 °F 30.3 in WNW 8 mph 11 mph 56 % 0 in
13:57 72 °F 52.9 °F 30.3 in West 4 mph 13 mph 51 % 0 in
14:02 72.1 °F 53.6 °F 30.3 in NW 3 mph 13 mph 52 % 0 in
14:07 72.1 °F 52.5 °F 30.3 in WSW 1 mph 13 mph 50 % 0 in
14:12 72.5 °F 51.6 °F 30.3 in NNW 3 mph 9 mph 48 % 0 in
14:17 72 °F 51.3 °F 30.3 in WNW 2 mph 12 mph 48 % 0 in
14:22 72.3 °F 50.9 °F 30.3 in NNW 5 mph 12 mph 47 % 0 in
14:27 72.7 °F 48.9 °F 30.3 in WNW 4 mph 12 mph 43 % 0 in
14:32 72.1 °F 49.6 °F 30.3 in NNW 4 mph 11 mph 45 % 0 in
14:37 72.1 °F 48.4 °F 30.3 in NE 1 mph 11 mph 43 % 0 in
14:42 72.3 °F 48.6 °F 30.3 in WNW 3 mph 10 mph 43 % 0 in
14:47 72.3 °F 49.8 °F 30.3 in WNW 5 mph 12 mph 45 % 0 in
14:52 72.3 °F 50.4 °F 30.3 in NW 2 mph 12 mph 46 % 0 in
14:57 72.3 °F 49.8 °F 30.3 in West 1 mph 12 mph 45 % 0 in
15:02 73 °F 51.6 °F 30.3 in West 4 mph 10 mph 47 % 0 in
15:07 73.2 °F 50.5 °F 30.3 in WNW 3 mph 11 mph 45 % 0 in
15:12 72.9 °F 49.6 °F 30.3 in WNW 7 mph 11 mph 44 % 0 in
15:17 72.9 °F 52.5 °F 30.3 in NNE 5 mph 14 mph 49 % 0 in
15:22 73.2 °F 51.8 °F 30.3 in WNW 6 mph 14 mph 47 % 0 in
15:27 73 °F 49.8 °F 30.3 in NW 4 mph 14 mph 44 % 0 in
15:32 73 °F 49.8 °F 30.3 in NNW 5 mph 12 mph 44 % 0 in
15:37 73 °F 50.4 °F 30.3 in NW 7 mph 12 mph 45 % 0 in
15:42 73.2 °F 50 °F 30.3 in Calm   9 mph 44 % 0 in
15:47 73.6 °F 50.9 °F 30.3 in NW 1 mph 9 mph 45 % 0 in
15:52 73.4 °F 50.7 °F 30.3 in WNW 11 mph 12 mph 45 % 0 in
15:57 73 °F 51.1 °F 30.3 in NNW 1 mph 13 mph 46 % 0 in
16:02 73 °F 51.6 °F 30.3 in West 1 mph 13 mph 47 % 0 in
16:07 73 °F 48.6 °F 30.3 in NNW 2 mph 13 mph 42 % 0 in
16:12 73.2 °F 49.5 °F 30.3 in NNW 5 mph 15 mph 43 % 0 in
16:17 73.9 °F 50.7 °F 30.3 in NNW 5 mph 15 mph 44 % 0 in
16:22 74.1 °F 49.6 °F 30.3 in West 8 mph 10 mph 42 % 0 in
16:27 73.8 °F 51.1 °F 30.3 in WNW 4 mph 13 mph 45 % 0 in
16:32 73.9 °F 51.8 °F 30.3 in WNW 6 mph 13 mph 46 % 0 in
16:37 74.5 °F 50.5 °F 30.3 in WNW 5 mph 13 mph 43 % 0 in
16:42 74.3 °F 51.6 °F 30.3 in North 2 mph 13 mph 45 % 0 in
16:47 74.3 °F 50.4 °F 30.3 in NNE 1 mph 13 mph 43 % 0 in
16:52 74.5 °F 50.5 °F 30.3 in WNW 10 mph 13 mph 43 % 0 in
16:57 74.3 °F 49.6 °F 30.3 in WNW 7 mph 12 mph 42 % 0 in
17:02 74.5 °F 51.8 °F 30.3 in NNW 6 mph 12 mph 45 % 0 in
17:07 74.5 °F 51.1 °F 30.3 in NE 2 mph 12 mph 44 % 0 in
17:12 74.7 °F 50.7 °F 30.3 in WNW 4 mph 9 mph 43 % 0 in
17:17 74.1 °F 50.9 °F 30.3 in NNW 4 mph 11 mph 44 % 0 in
17:22 74.3 °F 51.6 °F 30.3 in NNW 3 mph 11 mph 45 % 0 in
17:27 74.1 °F 50.2 °F 30.3 in NNW 9 mph 14 mph 43 % 0 in
17:32 74.3 °F 49.1 °F 30.3 in NW 2 mph 14 mph 41 % 0 in
17:37 74.7 °F 50.7 °F 30.3 in WNW 1 mph 14 mph 43 % 0 in
17:42 74.7 °F 51.3 °F 30.3 in NW 5 mph 11 mph 44 % 0 in
17:47 74.5 °F 49.8 °F 30.3 in NNW 11 mph 12 mph 42 % 0 in
17:52 74.3 °F 50.9 °F 30.3 in North 7 mph 12 mph 44 % 0 in
17:57 74.3 °F 50.4 °F 30.3 in WNW 2 mph 13 mph 43 % 0 in
18:02 74.1 °F 50.2 °F 30.3 in NW 4 mph 13 mph 43 % 0 in
18:07 74.1 °F 50.9 °F 30.3 in NNW 6 mph 13 mph 44 % 0 in
18:12 74.1 °F 50.9 °F 30.3 in NNE 7 mph 11 mph 44 % 0 in
18:17 73.9 °F 51.3 °F 30.3 in NW 5 mph 11 mph 45 % 0 in
18:22 74.5 °F 52.3 °F 30.3 in NW 4 mph 11 mph 46 % 0 in
18:32 74.1 °F 50.9 °F 30.3 in NW 5 mph 11 mph 44 % 0 in
18:42 73.8 °F 51.1 °F 30.3 in NNE 6 mph 12 mph 45 % 0 in
18:47 74.3 °F 50.9 °F 30.3 in NNW 3 mph 12 mph 44 % 0 in
18:52 74.5 °F 50.5 °F 30.3 in NNW 3 mph 11 mph 43 % 0 in
18:57 74.3 °F 51.6 °F 30.3 in North 8 mph 10 mph 45 % 0 in
19:02 73.8 °F 51.1 °F 30.3 in NNW 6 mph 17 mph 45 % 0 in
19:07 73.4 °F 51.4 °F 30.3 in NNW 8 mph 17 mph 46 % 0 in
19:12 73.2 °F 51.3 °F 30.3 in NNE 2 mph 17 mph 46 % 0 in
19:17 73.2 °F 51.8 °F 30.3 in NNE 9 mph 12 mph 47 % 0 in
19:22 73 °F 51.6 °F 30.3 in NE 4 mph 12 mph 47 % 0 in
19:27 72.9 °F 51.4 °F 30.3 in NNE 8 mph 13 mph 47 % 0 in
19:32 73 °F 51.1 °F 30.3 in NNE 6 mph 13 mph 46 % 0 in
19:37 73 °F 51.6 °F 30.3 in North 7 mph 12 mph 47 % 0 in
19:42 73 °F 51.6 °F 30.3 in NNE 4 mph 11 mph 47 % 0 in
19:47 73 °F 51.6 °F 30.3 in NNW 9 mph 10 mph 47 % 0 in
19:52 72.7 °F 51.8 °F 30.3 in NNE 6 mph 12 mph 48 % 0 in
19:57 72.7 °F 52.3 °F 30.3 in North 11 mph 13 mph 49 % 0 in
20:02 72.3 °F 51.4 °F 30.3 in NNE 8 mph 13 mph 48 % 0 in
20:12 72.1 °F 52.5 °F 30.3 in NNE 4 mph 13 mph 50 % 0 in
20:17 72 °F 51.8 °F 30.3 in NNW 4 mph 8 mph 49 % 0 in
20:22 71.6 °F 52 °F 30.3 in NE 7 mph 10 mph 50 % 0 in
20:27 71.4 °F 52.3 °F 30.3 in NE 4 mph 10 mph 51 % 0 in
20:32 71.2 °F 52.2 °F 30.3 in NNW 4 mph 10 mph 51 % 0 in
20:37 71.2 °F 52.7 °F 30.3 in North 5 mph 15 mph 52 % 0 in
20:47 70.9 °F 52.3 °F 30.3 in NE 2 mph 15 mph 52 % 0 in
20:52 70.7 °F 52.2 °F 30.3 in North 3 mph 10 mph 52 % 0 in
20:57 70.5 °F 52.5 °F 30.3 in NE 4 mph 10 mph 53 % 0 in
21:02 70.2 °F 52.2 °F 30.3 in NNE 4 mph 9 mph 53 % 0 in
21:07 69.8 °F 52 °F 30.3 in North 3 mph 9 mph 53 % 0 in
21:12 69.6 °F 52.2 °F 30.3 in North 3 mph 9 mph 54 % 0 in
21:17 69.4 °F 52.2 °F 30.3 in NNE 3 mph 8 mph 54 % 0 in
21:22 69.1 °F 52.2 °F 30.3 in North 2 mph 8 mph 55 % 0 in
21:32 68.4 °F 52.5 °F 30.3 in North 2 mph 6 mph 57 % 0 in
21:37 67.8 °F 52.5 °F 30.3 in NE 1 mph 6 mph 58 % 0 in
21:42 67.5 °F 52.7 °F 30.3 in North 2 mph 4 mph 59 % 0 in
21:47 66.9 °F 52.5 °F 30.3 in North 1 mph 4 mph 60 % 0 in
21:52 66.7 °F 52.3 °F 30.3 in Calm   4 mph 60 % 0 in
21:57 66.6 °F 52.7 °F 30.3 in NNW 1 mph 4 mph 61 % 0 in
22:02 66.4 °F 52.5 °F 30.3 in Calm   3 mph 61 % 0 in
22:07 66 °F 52.7 °F 30.3 in Calm   2 mph 62 % 0 in
22:12 65.8 °F 52.5 °F 30.3 in NNW 1 mph 2 mph 62 % 0 in
22:17 65.5 °F 52.5 °F 30.3 in North 2 mph 2 mph 63 % 0 in
22:22 65.1 °F 52.7 °F 30.3 in Calm   2 mph 64 % 0 in
22:32 64.6 °F 52.5 °F 30.3 in Calm   2 mph 65 % 0 in
22:37 64.4 °F 52.9 °F 30.3 in NNW 1 mph 2 mph 66 % 0 in
22:42 64 °F 52.5 °F 30.3 in Calm   2 mph 66 % 0 in
22:52 63.3 °F 52.5 °F 30.3 in North 1 mph 1 mph 68 % 0 in
22:57 63 °F 52.7 °F 30.3 in Calm   1 mph 69 % 0 in
23:02 62.8 °F 52.5 °F 30.3 in Calm   1 mph 69 % 0 in
23:07 62.6 °F 52.3 °F 30.3 in Calm   1 mph 69 % 0 in
23:12 62.4 °F 52.5 °F 30.3 in Calm   1 mph 70 % 0 in
23:17 62.2 °F 52.3 °F 30.3 in Calm   1 mph 70 % 0 in
23:22 62.1 °F 52.5 °F 30.3 in Calm   1 mph 71 % 0 in
23:32 61.7 °F 52.5 °F 30.3 in NW 1 mph 2 mph 72 % 0 in
23:37 61.5 °F 52.3 °F 30.3 in Calm   2 mph 72 % 0 in
23:42 61.3 °F 52.7 °F 30.3 in Calm   2 mph 73 % 0 in
23:47 61.2 °F 52.5 °F 30.3 in WNW 1 mph 2 mph 73 % 0 in
23:52 61.2 °F 52.5 °F 30.3 in Calm   2 mph 73 % 0 in
23:57 61.2 °F 52.5 °F 30.3 in Calm   2 mph 73 % 0 in
Meteo18
Compliments of Weather Underground - 4 mb

Script developed by  Jim McMurry - jmcmurry@mwt.net Adapted for the template by  Wim van der Kuil - Leuven-Template.eu

You find our weather info also at:

European Weather Network

Weather Underground

Equipment we use:

Weather-station
Davis Vue

Weather-program
Meteohub

Weather-server
Raspberry PI 2 B+

Provider
1 and 1

Davis Vue

Meteohub

Raspberry PI 2 B+

1 and 1